Time,TemperatureF,DewpointF,PressureIn,WindDirection,WindDirectionDegrees,WindSpeedMPH,WindSpeedGustMPH,Humidity,HourlyPrecipIn,Conditions,Clouds,dailyrainin,SoftwareType,DateUTC
2013-02-10 20:29:00,12.0,4.1,30.69,ENE,62,0.0,7.0,70,0.00,,,0.00,Wunderground v.1.15,2013-02-11 01:29:00,
2013-02-10 20:30:00,12.0,4.1,30.69,ENE,62,0.0,7.0,70,0.00,,,0.00,Wunderground v.1.15,2013-02-11 01:30:00,
2013-02-10 20:31:00,12.0,4.1,30.69,North,32767,0.0,7.0,70,0.00,,,0.00,Wunderground v.1.15,2013-02-11 01:31:00,
2013-02-10 20:37:00,11.5,4.2,30.69,WNW,301,0.0,7.0,72,0.00,,,0.00,Wunderground v.1.15,2013-02-11 01:37:00,
2013-02-10 20:42:00,11.1,4.1,30.69,WNW,301,0.0,7.0,73,0.00,,,0.00,Wunderground v.1.15,2013-02-11 01:42:00,
2013-02-10 20:47:00,10.8,3.5,30.68,West,278,0.0,7.0,72,0.00,,,0.00,Wunderground v.1.15,2013-02-11 01:47:00,
2013-02-10 20:53:00,10.5,3.6,30.68,West,278,0.0,7.0,73,0.00,,,0.00,Wunderground v.1.15,2013-02-11 01:53:00,
2013-02-10 20:59:00,9.9,4.1,30.67,West,278,0.0,7.0,77,0.00,,,0.00,Wunderground v.1.15,2013-02-11 01:59:00,
2013-02-10 21:05:00,9.2,3.2,30.67,West,278,0.0,7.0,76,0.00,,,0.00,Wunderground v.1.15,2013-02-11 02:05:00,
2013-02-10 21:10:00,8.9,3.7,30.67,West,276,0.0,1.0,79,0.00,,,0.00,Wunderground v.1.15,2013-02-11 02:10:00,
2013-02-10 21:15:00,9.0,3.3,30.67,WNW,283,0.0,1.0,77,0.00,,,0.00,Wunderground v.1.15,2013-02-11 02:15:00,
2013-02-10 21:20:00,9.2,3.4,30.67,WNW,283,1.0,1.0,77,0.00,,,0.00,Wunderground v.1.15,2013-02-11 02:20:00,
2013-02-10 21:25:00,9.2,3.2,30.67,West,281,1.0,1.0,76,0.00,,,0.00,Wunderground v.1.15,2013-02-11 02:25:00,
2013-02-10 21:30:00,9.4,3.1,30.67,WNW,287,1.0,1.0,75,0.00,,,0.00,Wunderground v.1.15,2013-02-11 02:30:00,
2013-02-10 21:36:00,9.3,2.7,30.67,WNW,287,0.0,1.0,74,0.00,,,0.00,Wunderground v.1.15,2013-02-11 02:36:00,
2013-02-10 21:41:00,9.1,3.1,30.67,WNW,287,0.0,0.0,76,0.00,,,0.00,Wunderground v.1.15,2013-02-11 02:41:00,
2013-02-10 21:47:00,8.8,3.1,30.67,WNW,288,0.0,1.0,77,0.00,,,0.00,Wunderground v.1.15,2013-02-11 02:47:00,
2013-02-10 21:52:00,9.0,2.7,30.67,WNW,283,1.0,1.0,75,0.00,,,0.00,Wunderground v.1.15,2013-02-11 02:52:00,
2013-02-10 21:57:00,9.0,3.0,30.67,WSW,257,1.0,1.0,76,0.00,,,0.00,Wunderground v.1.15,2013-02-11 02:57:00,
2013-02-10 22:03:00,8.1,2.4,30.67,WSW,257,0.0,1.0,77,0.00,,,0.00,Wunderground v.1.15,2013-02-11 03:03:00,
2013-02-10 22:09:00,7.6,1.9,30.67,WSW,257,0.0,1.0,77,0.00,,,0.00,Wunderground v.1.15,2013-02-11 03:09:00,
2013-02-10 22:14:00,7.3,1.6,30.67,WSW,257,0.0,0.0,77,0.00,,,0.00,Wunderground v.1.15,2013-02-11 03:14:00,
2013-02-10 22:19:00,7.2,1.5,30.67,WSW,257,0.0,0.0,77,0.00,,,0.00,Wunderground v.1.15,2013-02-11 03:19:00,
2013-02-10 22:24:00,7.2,2.1,30.66,WSW,258,0.0,0.0,79,0.00,,,0.00,Wunderground v.1.15,2013-02-11 03:24:00,
2013-02-10 22:29:00,6.9,1.8,30.66,WSW,257,0.0,0.0,79,0.00,,,0.00,Wunderground v.1.15,2013-02-11 03:29:00,
2013-02-10 22:35:00,6.6,1.5,30.67,WSW,257,0.0,0.0,79,0.00,,,0.00,Wunderground v.1.15,2013-02-11 03:35:00,
2013-02-10 22:40:00,6.5,1.6,30.67,WNW,288,0.0,0.0,80,0.00,,,0.00,Wunderground v.1.15,2013-02-11 03:40:00,
2013-02-10 22:45:00,6.2,1.1,30.67,WNW,288,0.0,0.0,79,0.00,,,0.00,Wunderground v.1.15,2013-02-11 03:45:00,
2013-02-10 22:51:00,6.3,1.4,30.67,West,277,0.0,1.0,80,0.00,,,0.00,Wunderground v.1.15,2013-02-11 03:51:00,
2013-02-10 22:56:00,6.6,1.5,30.67,WNW,283,0.0,1.0,79,0.00,,,0.00,Wunderground v.1.15,2013-02-11 03:56:00,
2013-02-10 23:01:00,6.6,1.5,30.67,WNW,282,0.0,2.0,79,0.00,,,0.00,Wunderground v.1.15,2013-02-11 04:01:00,
2013-02-10 23:07:00,6.3,1.2,30.66,WNW,282,0.0,2.0,79,0.00,,,0.00,Wunderground v.1.15,2013-02-11 04:07:00,
2013-02-10 23:12:00,6.0,1.2,30.66,WNW,282,0.0,0.0,80,0.00,,,0.00,Wunderground v.1.15,2013-02-11 04:12:00,
2013-02-10 23:18:00,6.0,1.4,30.66,WNW,282,0.0,0.0,81,0.00,,,0.00,Wunderground v.1.15,2013-02-11 04:18:00,
2013-02-10 23:23:00,5.8,1.0,30.66,West,281,0.0,1.0,80,0.00,,,0.00,Wunderground v.1.15,2013-02-11 04:23:00,
2013-02-10 23:29:00,5.9,1.1,30.66,WNW,286,0.0,1.0,80,0.00,,,0.00,Wunderground v.1.15,2013-02-11 04:29:00,
2013-02-10 23:35:00,5.6,0.8,30.66,WNW,287,0.0,0.0,80,0.00,,,0.00,Wunderground v.1.15,2013-02-11 04:35:00,
2013-02-10 23:40:00,5.8,1.0,30.66,WNW,286,0.0,0.0,80,0.00,,,0.00,Wunderground v.1.15,2013-02-11 04:40:00,
2013-02-10 23:45:00,5.5,0.7,30.66,WNW,287,0.0,0.0,80,0.00,,,0.00,Wunderground v.1.15,2013-02-11 04:45:00,
2013-02-10 23:50:00,5.1,0.5,30.66,West,281,0.0,1.0,81,0.00,,,0.00,Wunderground v.1.15,2013-02-11 04:50:00,
2013-02-10 23:55:00,5.0,0.4,30.66,West,281,0.0,1.0,81,0.00,,,0.00,Wunderground v.1.15,2013-02-11 04:55:00,